Location: Saint-Restitut
(44.3351°N, 4.7915°E)
Time: 06:26:50
(UTC+00:00)

Cosmos 1709 Rocket - Pass Details

Date: 03 February 2023
Orbit: 948 x 1001 km, 82.9° (Epoch: 26 March)

Event Time Altitude Azimuth Distance (km) Brightness Sun altitude
Rises 19:33:05 0° 350° (N) 3,654 7.2 -28.9°
Reaches altitude 10° 19:35:37 10° 349° (NNW) 2,698 6.5 -29.3°
Maximum altitude 19:41:45 74° 265° (W) 990 4.0 -30.4°
Enters shadow 19:43:08 54° 199° (SSW) 1,140 4.3 -30.7°
